Other Public Products
Issued by NWS Grand Forks, ND

Home | Current Version | Previous Version | Graphics & Text | Print | Product List | Glossary On
Versions: 1 2 3 4 5 6 7 8 9 10 11 12 13 14 15 16 17 18 19 20 21 22 23 24 25 26 27 28 29 30 31 32 33 34 35 36 37 38 39 40 41 42 43 44 45 46 47 48 49 50
000
FPUS83 KFGF 131810
OPUFGF
PRAIRIE TO PINES WEATHER ROUNDUP
NATIONAL WEATHER SERVICE EASTERN NORTH DAKOTA/GRAND FORKS ND
1200 PM CST SAT FEB 13 2016

 **SATELLITE DATA USED TO AUGMENT SKY COVER AT AUTOMATED STATIONS**
 *****  WEATHER ACROSS EASTERN NORTH DAKOTA  *****

CITY           SKY/WX    TMP DP  RH WIND       PRES   REMARKS
GRAND FORKS    CLOUDY     2  -7  66 S15       30.44F WCI -17
6HR MIN TEMP:  -7; 6HR MAX TEMP:   2;

GRAND FORKS AF CLOUDY     3  -7  64 S17       30.40F WCI -17
GRAND CITY NWS NOT AVBL
BUXTON         NOT AVBL
DEVILS LAKE    CLOUDY     3  -6  66 SE20      30.27F WCI -18
6HR MIN TEMP:  -7; 6HR MAX TEMP:   3;

FARGO          SUNNY      6  -5  60 SE16      30.45F WCI -12
6HR MIN TEMP:  -6; 6HR MAX TEMP:   6;

WAHPETON ARPT  PTCLDY     9  -2  61 SE17      30.46F WCI -10
$$

 *****  WEATHER ACROSS CENTRAL AND WESTERN NORTH DAKOTA  *****

CITY           SKY/WX    TMP DP  RH WIND       PRES   REMARKS
JAMESTOWN      CLOUDY     6  -4  63 SE18      30.27F WCI -13
6HR MIN TEMP:  -3; 6HR MAX TEMP:   6;

BISMARCK       CLOUDY    14   4  64 S21       30.15F WCI  -4
6HR MIN TEMP:   9; 6HR MAX TEMP:  14;

MINOT          CLOUDY    16   3  56 SE16      30.07F WCI   1
6HR MIN TEMP:   9; 6HR MAX TEMP:  16; 6HR PCP: TRACE;

MINOT AFB      CLOUDY    15   5  65 SE20      30.06F WCI  -2
6HR MIN TEMP:   7; 6HR MAX TEMP:  15; 6HR PCP: TRACE;

GARRISON         N/A     11   7  84 S20G28    30.06F WCI  -7
6HR MIN TEMP:   7; 6HR MAX TEMP:  11;

WILLISTON      CLOUDY    20  13  74 SE14      29.91F WCI   7
6HR MIN TEMP:  14; 6HR MAX TEMP:  20;

DICKINSON      LGT SNOW  15  11  83 S23G30    29.89F VSB 3/4 WCI  -3
6HR MIN TEMP:  10; 6HR MAX TEMP:  15; 6HR PCP: TRACE;

HETTINGER      CLOUDY    18  15  88 SE16      29.96F FOG     WCI   3
6HR MIN TEMP:  12; 6HR MAX TEMP:  18;

$$

 *****  OTHER OBSERVATIONS NORTHEAST NORTH DAKOTA  *****

CITY           SKY/WX    TMP DP  RH WIND       PRES   REMARKS
WALHALLA       FAIR       1  -6  71 S17       30.37F WCI -19
LANGDON        FAIR       1  -8  66 SE20      30.28F WCI -20
CAVALIER       FAIR       1  -4  78 S21       30.39F WCI -20
GRAFTON        FAIR       1  -6  71 S15G22    30.44F WCI -18
CANDO          NOT AVBL
FORT TOTTEN      N/A      3  -8  59 SE14      29.95S WCI -15
ROLLA          CLOUDY     0  -8  71 S18G24    30.20F WCI -22
RUGBY          CLOUDY     5  -2  72 SE18G26   30.18F WCI -15
 ***** THE ABOVE OBSERVATIONS ARE NON NWS ARE NOT QUALITY
        CONTROLLED AND MAY MIS-REPORT RAIN FOR SNOW...
$$

 *****  OTHER OBSERVATIONS SOUTHEAST NORTH DAKOTA *****

CITY           SKY/WX    TMP DP  RH WIND       PRES   REMARKS
COOPERSTOWN    NOT AVBL
VALLEY CITY    CLOUDY     1  -4  78 SE16G22   30.36F WCI -18
OAKES          CLOUDY     9   0  66 SE17      30.34F WCI -10
GWINNER        MOCLDY     7   0  72 SE16      30.38F WCI -11
SHEYENNE NWR     N/A      5  -6  61 SE13      29.95S WCI -12
BUFFALO        NOT AVBL
WYNDMERE       NOT AVBL
 ***** THE ABOVE OBSERVATIONS ARE NON NWS ARE NOT QUALITY
       CONTROLLED AND MAY MIS-REPORT RAIN FOR SNOW...
$$

  *****  WEATHER ACROSS NORTHERN MINNESOTA  *****

CITY           SKY/WX    TMP DP  RH WIND       PRES   REMARKS
FLAG ISLAND    CLOUDY   -13 -18  77 SE10      30.47F WCI -32
WARROAD        CLOUDY    -6 -15  65 E3        30.47F
ROSEAU         CLOUDY     0 -11  60 SE8       30.47F WCI -15
HALLOCK        CLOUDY     0  -9  65 SE16      30.43F WCI -21
THF RVR FALLS  CLOUDY     0 -18  42 SE12      30.44F WCI -18
6HR MIN TEMP: -17; 6HR MAX TEMP:   0;

HALSTAD        NOT AVBL
FOSSTON        CLOUDY     9   0  66 SE5       30.43F WCI   0
BAUDETTE       CLOUDY    -3 -17  51 SE6       30.47F WCI -15
6HR MIN TEMP: -28; 6HR MAX TEMP:  -3;

WASKISH        CLOUDY    -2 -11  65 CALM      30.47F
CROOKSTON      CLOUDY     0  -9  65 S12       30.47F WCI -18
$$
  *****  WEATHER ACROSS CENTRAL AND WEST MINNESOTA  *****

CITY           SKY/WX    TMP DP  RH WIND       PRES   REMARKS
BEMIDJI        CLOUDY     0 -13  54 SE6       30.45F WCI -12
PARK RAPIDS    CLOUDY     0 -14  51 SE7       30.45F WCI -13
6HR MIN TEMP: -24; 6HR MAX TEMP:   0; 6HR PCP: TRACE;

WADENA         CLOUDY     1  -9  60 SE8       30.46F WCI -12
DETROIT LAKES  CLOUDY     1  -8  66 SE12      30.43F WCI -15
MOORHEAD       SUNNY      3  -6  66 S15       30.46F WCI -15
FERGUS FALLS   SUNNY      5  -8  56 SE15      30.50F WCI -13
ELBOW LAKE     FAIR       4  -5  65 E15       30.47F WCI -14
6HR MIN TEMP:  -9; 6HR MAX TEMP:   4;

MORRIS MN      MOSUNNY    7  -2  66 SE18      30.47F WCI -12
STAPLES        SUNNY      1 -13  51 S8        30.49F WCI -12
WHEATON        CLOUDY     7   0  72 SE18      30.47F WCI -12
$$
  *****  WEATHER ELSEWHERE ACROSS MINNESOTA  *****

CITY           SKY/WX    TMP DP  RH WIND       PRES   REMARKS
DULUTH         SUNNY      1 -14  49 W7        30.47F WCI -12
6HR MIN TEMP: -17; 6HR MAX TEMP:   1;

INTRNTL FALLS  SUNNY     -1 -16  48 VRB3      30.50F
6HR MIN TEMP: -29; 6HR MAX TEMP:  -1;

ELY            SUNNY     -2 -15  55 CALM      30.46S
CLOQUET        SUNNY      3 -18  36 CALM      30.50F
BRAINERD       SUNNY      0 -13  54 SW6       30.52F WCI -12
6HR MIN TEMP: -22; 6HR MAX TEMP:   0;

HIBBING        SUNNY     -1 -16  48 N5        30.48F WCI -11
6HR MIN TEMP: -27; 6HR MAX TEMP:  -1; 6HR PCP: TRACE;

ALEXANDRIA     CLOUDY     2 -10  57 SE12      30.47F WCI -15
6HR MIN TEMP: -13; 6HR MAX TEMP:   2;

SAINT CLOUD    SUNNY      1 -11  57 SE8       30.56F WCI -13
6HR MIN TEMP: -14; 6HR MAX TEMP:   1;

MINNEAPOLIS    SUNNY      6 -10  47 CALM      30.60F
6HR MIN TEMP:  -6; 6HR MAX TEMP:   6;

$$

  *****  WEATHER ACROSS SOUTH DAKOTA  *****

CITY           SKY/WX    TMP DP  RH WIND       PRES   REMARKS
SIOUX FALLS    CLOUDY     6  -3  66 S13       30.43F WCI -10
6HR MIN TEMP:   0; 6HR MAX TEMP:   6;

BROOKINGS      CLOUDY     5  -5  63 SE16      30.38F WCI -14
WATERTOWN      CLOUDY     7  -5  57 SE15      30.34F WCI -10
6HR MIN TEMP:  -1; 6HR MAX TEMP:   7;

HURON          CLOUDY    10   0  63 SE21G29   30.30F WCI  -9
6HR MIN TEMP:   6; 6HR MAX TEMP:  10;

SISSETON         N/A      3  -4  72 S15       30.42F WCI -16
ABERDEEN       CLOUDY    12  -1  56 SE17      30.34F WCI  -5
6HR MIN TEMP:   4; 6HR MAX TEMP:  12;

MITCHELL       CLOUDY    11   3  70 SE21      30.36F WCI  -8
PIERRE         CLOUDY    23  15  71 SE17      30.15S WCI   9
6HR MIN TEMP:  13; 6HR MAX TEMP:  23;

MOBRIDGE       LGT SNOW  15  10  80 SE17      30.12F WCI  -1
RAPID CITY     CLOUDY    40  32  73 S10       29.91F
6HR MIN TEMP:  29; 6HR MAX TEMP:  40;

$$

  *****  SOME WEATHER IN NEARBY STATES *****

CITY           SKY/WX    TMP DP  RH WIND       PRES   REMARKS
GLASGOW MT     FRZ RAIN  25  21  85 E7        29.83F FOG     WCI  17
6HR MIN TEMP:  16; 6HR MAX TEMP:  25; 6HR PCP:  0.04;

GREAT FALLS MT MOSUNNY   46  24  42 W26G36    29.90S
6HR MIN TEMP:  40; 6HR MAX TEMP:  48; 6HR PCP: TRACE;

CHEYENNE WY    CLOUDY    53  14  21 W17       30.03S
6HR MIN TEMP:  33; 6HR MAX TEMP:  57;

SCOTTSBLUFF NE CLOUDY    39  32  76 SE5       30.00F
6HR MIN TEMP:  29; 6HR MAX TEMP:  39;

OMAHA NE       CLOUDY    14   3  61 SE9       30.54F WCI   2
6HR MIN TEMP:   9; 6HR MAX TEMP:  15;

DES MOINES IA  CLOUDY    10  -4  53 S8        30.59F WCI  -2
6HR MIN TEMP:   4; 6HR MAX TEMP:  10;

DAVENPORT IA   SUNNY     13  -7  40 MISG      30.62F
CHICAGO IL     MOSUNNY   13  -7  40 NW9       30.58F WCI   1
6HR MIN TEMP:   2; 6HR MAX TEMP:  13;

EAU CLAIRE WI  SUNNY      1 -13  51 W5        30.59F WCI  -9
6HR MIN TEMP: -13; 6HR MAX TEMP:   1;

LA CROSSE WI   SUNNY      6 -11  45 NW5       30.63F WCI  -3
6HR MIN TEMP:  -8; 6HR MAX TEMP:   6;

$$

  *****  SOME NATIONAL WEATHER *****

CITY           SKY/WX    TMP DP  RH WIND       PRES   REMARKS
LA GUARDIA NY  PTSUNNY   20  -1  40 NW24G39   30.06S WCI   3
6HR MIN TEMP:  20; 6HR MAX TEMP:  23;                             C1F1C2F2C3F3C4F4C5F5C6F6C7F7C8F8C9F9CaFaCbFbCcFcCdFdCe!


USA.gov is the U.S. government's official web portal to all federal, state and local government web resources and services.